Powrót do katalogu

NIMBUS 2 DEB

AktywnySSO
NORAD 49249·DEBRIS·🇺🇸 United States

Wystrzelony May 15, 1966 z Vandenberg Space Force Base

Loading…

Następne Przeloty (najbliższe 24 godziny)

TLE

ŚwieżeSource: Space-Track

Epoka: Sep 14, 2026, 08:08 UTC

1 49249U 66040BX  26257.33943888  .00001397  00000-0  25582-2 0  9996
2 49249 100.4376 114.5689 0054667  42.9273 317.6102 13.41817258251198

Śledź NIMBUS 2 DEB w czasie rzeczywistym z AllMySat

Download on the App Store